Showing default

TOPSAT, 28891

Orbit data source: Space-Track

TOPSAT, 28891 is a payload satellite owned by UK MoD (UK) in SSO that was launched on Thu, 27 Oct 2005 UTC via a KOSMOS 11K65M launch vehicle from the Plesetsk Missile And Space Complex (PKMTR). Payload-class satellites include a variety of spacecraft equipped with specific instruments for various scientific and technological missions. These include communications satellites like Starlink; space stations such as the ISS; scientific satellites like the Hubble; Earth observation satellites from companies like Planet Labs, Umbra, and HawkEye 360; GPS; miniature CubeSats for education and research; and military/defense satellites.

Loading next visibility...
Identifier
28891, 2005-043B
Orbit
SSO
Last TLE update
8 hours ago
Origin
Manufacturer
SSTL/QINQ
Mission
Non-operational Defense Imaging
Bus & Motor
SSTL-150?, Unknown motor
Mass
115 kg wet, 115 kg dry
Launch date (UTC)
2005-10-27 (20 years ago)
Launch vehicle
KOSMOS 11K65M
Launch site
Plesetsk Missile And Space Complex (PKMTR)
Object type
Payload
Rocket body
Debris
Shape & HBR
Poly, 1.5 m
Radar Cross Section
1.898 m², Medium (>0.1 m² and < 1m²)

Expand to show TLE details & history

TLE from 8 hours ago
0 TOPSAT
1 28891U 05043B   25188.90025989  .00000314  00000-0  69190-4 0  9993
2 28891  98.2606 320.0077 0014602 283.6362  76.3214 14.64039818 50285
Epoch: 2025-07-07T21:36Z
TLE epoch observation values (Epoch: 2025-07-07T21:36:22.454Z)
Latitude
-0.00001°
Longitude
69.81118°
Altitude
680.725 km
Speed
7.518 km/s
True Right ascension
21h 20m 01s
True Declination
0° 00' 00"
Sunlit
Object was in full shadow at epoch
Visualization orbit readout
Latitude
-81.72984°
Longitude
166.69375°
Altitude
698.421 km
Speed
7.511 km/s
Apparent Right ascension
05h 11m 40s
Apparent Declination
-62° 09' 23"
Sunlit
Object is in daylight
Visualization observer readout
Local Sidereal Time
17:28:50
Azimuth
174.739° S
Elevation
-67.608°
Doppler factor
1
Orbital elements
Apogee altitude
687.541 km
Perigee altitude
666.936 km
Semi-major axis
7,055.375 km
Eccentricity
0.00146
Inclination
98.2606°
RAAN
320.0077°
Arg. of periapsis
283.6362°
True anomaly
Unknown
Mean anomaly
76.3214°
Eccentric anomaly
Unknown
Mean motion
3.66238 °/min
Orbital period
98.3 mins
BSTAR
0.00006919
Loading maneuver chart data...
Loading SW <> Apogee altitude chart data...
Loading historical data...
Loading historical data...
Loading historical data...
Loading historical data...
Loading historical data...
Loading historical data...
Loading historical data...

TOPSAT Visibility forecast

Observer location: undefined°, undefined°

Span
Click to sort rows by Start time (UTC) header in descending order
Start Az.
Max El. time (UTC)
Max El. Az.
Max El.
End time (UTC)
End Az.
5 mins2025-07-08 07:36:36.923Z101.005° ESE2025-07-08 07:38:36.923Z72.941° E17.161°2025-07-08 07:41:36.923Z28.41° NE
7 mins2025-07-08 09:12:36.923Z192.581° SSW2025-07-08 09:15:36.923Z244.814° WSW34.854°2025-07-08 09:19:36.923Z329.935° NNW
7 mins2025-07-08 21:09:36.923Z35.402° NE2025-07-08 21:12:36.923Z94.882° ESE33.581°2025-07-08 21:16:36.923Z167.272° S
5 mins2025-07-08 22:47:36.923Z327.12° NNW2025-07-08 22:49:36.923Z295.867° NW18.699°2025-07-08 22:52:36.923Z252.442° W
|